World > North America > United States > New York

Hourly Pembroke, NY Regional Weather

Feedback E-mail the Weather

Latest News

Pembroke, NY Weather Maps

°F °C°F °C
Pembroke Weather Map
UTC Time: 5/24/2022, 21:59
Your Time:

Pembroke, NY Regional Weather

Expires:202205242200;;522091
ASUS41 KALY 242110
RWRALY

NEW YORK STATE HOURLY WEATHER ROUNDUP
NATIONAL WEATHER SERVICE ALBANY NY
500 PM EDT TUE MAY 24 2022

NOTE: "FAIR" INDICATES FEW OR NO CLOUDS BELOW 12,000 FEET WITH NO
SIGNIFICANT WEATHER AND/OR NO OBSTRUCTIONS TO VISIBILITY.


NYZ001>004-010>016-019>021-085-242200-
WEST

  
CITY           SKY/WX    TMP DP  RH WIND       PRES   REMARKS
NIAGARA FALLS  FAIR      68  45  43 NE13      30.22F                  
BUFFALO        FAIR      67  48  50 NE16G22   30.21F                  
DUNKIRK        FAIR      67  50  54 N12       30.20F                  
JAMESTOWN      PTSUNNY   68  48  48 VRB3      30.20F                  
WELLSVILLE     FAIR      65  49  56 SE10G18   30.24F                  
ROCHESTER      PTSUNNY   63  41  44 NE16      30.24F                  
PENN YAN       FAIR      71  48  43 SE10      30.22F                  
$$

             KEY
       WCI = WIND CHILL INDEX
       VSB = VISIBILITY
       HX  = HEAT INDEX
$$
  

SKY/WX - Weather  TMP - Temperature  DP - Dew Point  RH - Humidity
WIND - Wind Direction/Speed PRES - Barometric Pressure VSB - Visibility
WCI - Wind Chill Index E13G22 Wind - East Wind 13 mph/Gusts of 22 mph

Trending Headlines

Pembroke Radar Loop



Pembroke Quick Facts


National Two Day Weather Forecast


E-mail the Pembroke Weather Forecast

Voice your opinion or tell us about page issues...